EW4363 Weather Reports


Display with metric or nautical units.
time (UTC)temp
F
wind
direction
speed
MPH
gust
MPH
rain 1hr
in
rain 24hr
in
rain mn
in
humidity
%
barometer
mb
20260510211303 65 264 1.0 3.0 0.00 0.00 0.00 62 1010.8
20260510210802 65 269 1.0 3.0 0.00 0.00 0.00 63 1010.9
20260510210303 65 287 1.0 7.0 0.00 0.00 0.00 62 1010.9
20260510205802 65 275 1.0 6.0 0.00 0.00 0.00 63 1011.0
20260510205306 65 283 1.0 3.0 0.00 0.00 0.00 64 1010.9
20260510204803 65 259 0.0 3.0 0.00 0.00 0.00 65 1010.8
20260510204303 65 278 1.0 2.0 0.00 0.00 0.00 66 1010.8
20260510203803 65 326 1.0 7.0 0.00 0.00 0.00 66 1010.8
20260510203302 65 263 1.0 5.0 0.00 0.00 0.00 66 1010.7
20260510202803 65 265 5.0 8.0 0.00 0.00 0.00 65 1010.7
20260510202306 65 258 2.0 6.0 0.00 0.00 0.00 64 1010.6
20260510201802 66 258 2.0 8.0 0.00 0.00 0.00 64 1010.6
20260510201303 66 253 1.0 2.0 0.00 0.00 0.00 64 1010.6
20260510200803 66 264 0.0 3.0 0.00 0.00 0.00 63 1010.5
20260510200303 66 327 1.0 5.0 0.00 0.00 0.00 62 1010.5
20260510195803 66 288 1.0 3.0 0.00 0.00 0.00 62 1010.3
20260510194803 67 271 2.0 5.0 0.00 0.00 0.00 62 1010.1
20260510194303 67 293 3.0 9.0 0.00 0.00 0.00 61 1010.1
20260510193803 67 338 0.0 6.0 0.00 0.00 0.00 61 1010.0
20260510193302 67 260 2.0 8.0 0.00 0.00 0.00 62 1010.0
20260510192803 67 263 1.0 5.0 0.00 0.00 0.00 62 1009.9
20260510192306 67 307 2.0 3.0 0.00 0.00 0.00 62 1009.9
20260510191803 68 329 1.0 5.0 0.00 0.00 0.00 61 1010.0
20260510190803 68 328 2.0 5.0 0.00 0.00 0.00 58 1009.9
20260510190303 68 302 3.0 8.0 0.00 0.00 0.00 57 1009.9
20260510185802 68 292 2.0 6.0 0.00 0.00 0.00 55 1009.9
20260510185305 68 313 1.0 3.0 0.00 0.00 0.00 54 1009.8
20260510184803 69 251 2.0 3.0 0.00 0.00 0.00 54 1009.8
20260510184303 69 326 1.0 3.0 0.00 0.00 0.00 53 1009.8
20260510183803 69 286 1.0 5.0 0.00 0.00 0.00 53 1009.8
20260510183303 69 326 1.0 5.0 0.00 0.00 0.00 52 1009.7
20260510182803 69 318 2.0 6.0 0.00 0.00 0.00 52 1009.6
20260510182306 69 319 2.0 6.0 0.00 0.00 0.00 51 1009.6
20260510181803 70 321 2.0 6.0 0.00 0.00 0.00 51 1009.5
20260510181302 70 322 2.0 6.0 0.00 0.00 0.00 50 1009.4
20260510180803 71 323 3.0 5.0 0.00 0.00 0.00 49 1009.4
20260510180303 71 251 1.0 5.0 0.00 0.01 0.00 48 1009.3
20260510175803 72 320 2.0 5.0 0.00 0.01 0.00 46 1009.2
20260510175306 72 322 2.0 5.0 0.00 0.01 0.00 45 1009.1
20260510173803 73 322 3.0 8.0 0.00 0.01 0.00 40 1009.0
20260510173303 73 307 2.0 5.0 0.00 0.01 0.00 39 1008.9
20260510172803 73 302 2.0 10.0 0.00 0.01 0.00 39 1008.8
20260510172306 73 250 2.0 7.0 0.00 0.02 0.00 41 1008.8
20260510171803 73 281 4.0 13.0 0.00 0.02 0.00 40 1008.9
20260510171303 74 283 5.0 12.0 0.00 0.02 0.00 39 1008.7
20260510170803 75 295 3.0 8.0 0.00 0.02 0.00 39 1008.7
20260510170302 75 303 2.0 5.0 0.00 0.03 0.00 40 1008.5
20260510165803 75 310 3.0 9.0 0.00 0.04 0.00 40 1008.4
20260510164803 75 303 3.0 7.0 0.00 0.06 0.00 41 1008.5
20260510163804 75 327 1.0 9.0 0.00 0.07 0.00 41 1008.4
20260510163303 76 304 3.0 8.0 0.00 0.08 0.00 40 1008.4
20260510162803 76 329 3.0 7.0 0.00 0.09 0.00 41 1008.3
20260510161803 75 321 3.0 6.0 0.00 0.13 0.00 41 1008.4
20260510161303 75 315 4.0 8.0 0.00 0.13 0.00 41 1008.4
20260510160803 76 317 4.0 12.0 0.00 0.13 0.00 40 1008.4
20260510160303 76 304 3.0 12.0 0.00 0.14 0.00 41 1008.4
20260510155803 76 316 2.0 6.0 0.00 0.16 0.00 42 1008.3
20260510155305 76 319 3.0 8.0 0.00 0.17 0.00 42 1008.4
20260510154803 76 318 3.0 8.0 0.00 0.19 0.00 42 1008.3
20260510154303 76 319 4.0 12.0 0.00 0.20 0.00 42 1008.4
20260510153303 76 317 5.0 12.0 0.00 0.24 0.00 42 1008.4
20260510152803 76 290 6.0 12.0 0.00 0.26 0.00 43 1008.4
20260510152307 76 317 3.0 10.0 0.00 0.28 0.00 43 1008.4
20260510151803 77 324 6.0 13.0 0.00 0.28 0.00 43 1008.5
20260510151303 77 315 6.0 15.0 0.00 0.29 0.00 43 1008.5
20260510150803 77 311 4.0 7.0 0.00 0.31 0.00 44 1008.6
20260510145804 77 306 2.0 10.0 0.00 0.32 0.00 44 1008.6
20260510145306 77 325 3.0 8.0 0.00 0.32 0.00 44 1008.7
20260510144803 77 318 4.0 7.0 0.00 0.32 0.00 43 1008.8
20260510144303 77 316 2.0 9.0 0.00 0.32 0.00 44 1008.7
20260510143803 77 301 4.0 9.0 0.00 0.33 0.00 44 1008.7
20260510143303 76 325 2.0 7.0 0.00 0.33 0.00 45 1008.7
20260510142810 76 311 5.0 9.0 0.00 0.34 0.00 46 1008.9
20260510141804 75 322 4.0 12.0 0.00 0.35 0.00 46 1009.1
20260510140803 75 321 5.0 12.0 0.00 0.35 0.00 48 1009.2
20260510140315 75 314 6.0 12.0 0.00 0.35 0.00 49 1009.2
20260510135306 74 321 4.0 10.0 0.00 0.35 0.00 52 1009.5
20260510134803 74 321 3.0 8.0 0.00 0.35 0.00 52 1009.5
20260510133803 75 319 3.0 7.0 0.00 0.35 0.00 52 1009.6
20260510133303 75 313 5.0 9.0 0.00 0.35 0.00 51 1009.6
20260510132803 76 321 6.0 10.0 0.00 0.35 0.00 50 1009.5
20260510131804 76 316 5.0 10.0 0.00 0.35 0.00 49 1009.5
20260510131306 76 287 2.0 5.0 0.00 0.35 0.00 47 1009.5
20260510130803 76 308 4.0 7.0 0.00 0.35 0.00 50 1009.7
20260510125306 75 314 2.0 7.0 0.00 0.35 0.00 53 1009.7
20260510124803 74 326 3.0 6.0 0.00 0.35 0.00 53 1009.8
20260510124303 74 302 2.0 5.0 0.00 0.35 0.00 54 1009.9
20260510123803 74 275 1.0 6.0 0.00 0.35 0.00 54 1009.9
20260510122803 75 320 5.0 8.0 0.00 0.35 0.00 54 1009.9
20260510122306 74 321 4.0 7.0 0.00 0.35 0.00 55 1010.1
20260510121803 74 312 5.0 9.0 0.00 0.35 0.00 58 1010.2
20260510115803 73 317 3.0 8.0 0.00 0.35 0.00 60 1010.5
20260510114803 73 326 4.0 9.0 0.00 0.35 0.00 58 1010.5
20260510114304 73 318 3.0 6.0 0.00 0.35 0.00 56 1010.6
20260510113803 73 320 3.0 8.0 0.00 0.35 0.00 54 1010.7
20260510113303 74 296 1.0 5.0 0.00 0.35 0.00 56 1010.7
20260510112804 74 312 5.0 8.0 0.00 0.35 0.00 55 1010.6
20260510112306 75 316 3.0 8.0 0.00 0.35 0.00 55 1010.6
20260510111303 74 316 5.0 9.0 0.00 0.35 0.00 58 1010.7
20260510110803 74 316 2.0 5.0 0.00 0.35 0.00 60 1010.8
20260510110304 73 317 3.0 7.0 0.00 0.35 0.00 60 1010.8
20260510105804 73 315 2.0 7.0 0.00 0.35 0.00 59 1010.9
20260510105306 73 307 3.0 8.0 0.00 0.35 0.00 58 1011.0
20260510104803 73 318 3.0 7.0 0.00 0.35 0.00 59 1011.0
20260510104304 73 265 4.0 10.0 0.00 0.35 0.00 58 1011.1
20260510103803 74 321 3.0 8.0 0.00 0.35 0.00 59 1011.0
20260510103303 74 317 2.0 3.0 0.00 0.35 0.00 58 1011.0
20260510102804 74 315 3.0 8.0 0.00 0.35 0.00 61 1011.1
20260510102306 73 320 3.0 6.0 0.00 0.35 0.00 61 1011.1
20260510101803 73 322 2.0 7.0 0.00 0.35 0.00 61 1011.2
20260510101303 73 314 2.0 8.0 0.00 0.35 0.00 62 1011.2
20260510100803 73 296 2.0 6.0 0.00 0.35 0.00 63 1011.2
20260510100306 72 312 2.0 7.0 0.00 0.35 0.00 63 1011.2
20260510095803 71 327 1.0 6.0 0.00 0.35 0.00 65 1011.4
20260510095306 71 316 3.0 10.0 0.00 0.35 0.00 66 1011.4
20260510094804 71 312 2.0 7.0 0.00 0.35 0.00 65 1011.4
20260510093803 70 313 3.0 5.0 0.00 0.35 0.00 67 1011.5
20260510093303 70 278 2.0 6.0 0.00 0.35 0.00 66 1011.4
20260510092804 70 311 3.0 7.0 0.00 0.35 0.00 66 1011.4
20260510092306 69 312 2.0 6.0 0.00 0.35 0.00 68 1011.5
20260510085803 67 254 2.0 6.0 0.00 0.35 0.00 70 1011.6
20260510085306 67 298 1.0 6.0 0.00 0.35 0.00 72 1011.6
20260510084303 66 338 0.0 2.0 0.00 0.35 0.00 74 1011.7
20260510083804 65 274 0.0 1.0 0.00 0.35 0.00 75 1011.7
20260510083303 65 263 1.0 2.0 0.00 0.35 0.00 76 1011.8
20260510082804 64 267 0.0 3.0 0.00 0.35 0.00 76 1011.8
20260510082306 64 268 0.0 2.0 0.00 0.35 0.00 78 1011.9
20260510081304 63 273 0.0 3.0 0.00 0.35 0.00 80 1011.8
20260510080303 62 270 0.0 3.0 0.00 0.35 0.00 81 1011.8
20260510075804 61 271 0.0 5.0 0.00 0.35 0.00 82 1011.8
20260510075306 61 266 0.0 2.0 0.00 0.35 0.00 82 1011.8
20260510074803 61 270 1.0 2.0 0.00 0.35 0.00 83 1011.8
20260510074303 61 275 1.0 3.0 0.00 0.35 0.00 83 1011.7
20260510073804 60 278 0.0 3.0 0.00 0.35 0.00 83 1011.6
20260510073304 60 264 0.0 2.0 0.00 0.35 0.00 85 1011.6
20260510072803 59 265 1.0 2.0 0.00 0.35 0.00 85 1011.7
20260510071804 59 273 1.0 6.0 0.00 0.35 0.00 86 1011.6
20260510071304 59 267 1.0 3.0 0.00 0.35 0.00 86 1011.6
20260510070804 59 271 1.0 3.0 0.00 0.35 0.00 88 1011.6
20260510070303 58 276 2.0 5.0 0.00 0.35 0.00 88 1011.6
20260510065803 58 276 1.0 3.0 0.00 0.35 0.00 89 1011.6
20260510064803 57 327 0.0 0.0 0.00 0.35 0.00 90 1011.6
20260510064304 57 327 0.0 1.0 0.00 0.35 0.00 90 1011.6
20260510063303 56 269 1.0 2.0 0.00 0.35 0.00 92 1011.6
20260510062804 56 304 0.0 1.0 0.00 0.35 0.00 94 1011.6
20260510062306 55 304 1.0 2.0 0.00 0.35 0.00 94 1011.5
20260510061804 55 332 0.0 0.0 0.00 0.35 0.00 94 1011.5
20260510061303 54 332 0.0 0.0 0.00 0.35 0.00 96 1011.5
20260510060804 54 332 0.0 0.0 0.00 0.35 0.00 97 1011.5
20260510060303 52 332 0.0 0.0 0.00 0.35 0.00 96 1011.4
20260510055804 52 332 0.0 0.0 0.00 0.35 0.00 96 1011.4
20260510055306 52 332 0.0 0.0 0.00 0.35 0.00 96 1011.5
20260510054803 52 332 0.0 0.0 0.00 0.35 0.00 96 1011.5
20260510054303 51 332 0.0 0.0 0.00 0.35 0.00 96 1011.5
20260510053803 51 332 0.0 0.0 0.00 0.35 0.00 96 1011.5
20260510053304 51 324 0.0 0.0 0.00 0.35 0.00 96 1011.4
20260510052804 51 324 0.0 0.0 0.00 0.35 0.00 96 1011.4
20260510052306 51 324 0.0 0.0 0.00 0.35 0.00 96 1011.4
20260510051803 52 320 0.0 0.0 0.00 0.35 0.00 96 1011.4
20260510050803 52 327 0.0 0.0 0.00 0.35 0.00 96 1011.4
20260510050303 52 327 0.0 0.0 0.00 0.35 0.00 96 1011.3
20260510045804 52 327 0.0 0.0 0.00 0.35 0.00 96 1011.3
20260510044804 52 327 0.0 0.0 0.00 0.35 0.00 96 1011.4
20260510044303 52 327 0.0 0.0 0.00 0.35 0.00 96 1011.4
20260510043803 52 327 0.0 0.0 0.00 0.35 0.00 96 1011.5
20260510043304 52 327 0.0 0.0 0.00 0.35 0.00 96 1011.5
20260510042803 52 327 0.0 0.0 0.00 0.35 0.00 96 1011.6
20260510042306 52 327 0.0 0.0 0.00 0.35 0.00 96 1011.6
20260510041804 52 327 0.0 0.0 0.00 0.35 0.00 96 1011.5
20260510041304 53 327 0.0 0.0 0.00 0.35 0.00 96 1011.5
20260510040803 52 327 0.0 0.0 0.00 0.35 0.00 96 1011.5
20260510040304 52 327 0.0 0.0 0.00 0.35 0.00 96 1011.5
20260510035803 53 327 0.0 0.0 0.00 0.35 0.00 96 1011.5
20260510035306 53 327 0.0 1.0 0.00 0.35 0.00 96 1011.6
20260510034804 53 327 0.0 0.0 0.00 0.35 0.00 96 1011.6
20260510034304 53 332 0.0 1.0 0.00 0.35 0.00 96 1011.5
20260510033804 53 323 0.0 0.0 0.00 0.35 0.00 96 1011.5
20260510033304 53 323 0.0 0.0 0.00 0.35 0.00 96 1011.6
20260510032804 53 323 0.0 0.0 0.00 0.35 0.00 96 1011.6
20260510031804 53 321 0.0 1.0 0.00 0.35 0.00 95 1011.6
20260510031304 53 320 0.0 0.0 0.00 0.35 0.00 95 1011.6
20260510030804 53 320 0.0 0.0 0.00 0.35 0.00 95 1011.5
20260510025804 53 320 0.0 0.0 0.00 0.35 0.00 95 1011.6
20260510025306 54 320 0.0 1.0 0.00 0.35 0.00 95 1011.6
20260510024804 54 320 0.0 0.0 0.00 0.35 0.00 95 1011.7
20260510023804 54 320 0.0 0.0 0.00 0.35 0.00 95 1011.7
20260510023304 54 320 0.0 0.0 0.00 0.35 0.00 95 1011.8
20260510022804 54 320 0.0 0.0 0.00 0.35 0.00 95 1011.9
20260510022306 54 320 0.0 0.0 0.00 0.35 0.00 95 1011.9
20260510021804 55 320 0.0 0.0 0.00 0.35 0.00 96 1011.9
20260510021304 55 320 0.0 2.0 0.00 0.35 0.00 96 1011.9
20260510020803 55 330 1.0 2.0 0.00 0.35 0.00 96 1011.9
20260510015805 55 329 0.0 1.0 0.00 0.35 0.00 95 1011.9
20260510015306 55 329 0.0 1.0 0.00 0.35 0.00 96 1011.9
20260510013804 55 331 0.0 1.0 0.00 0.35 0.00 95 1011.7
20260510013304 55 262 0.0 1.0 0.00 0.35 0.00 96 1011.7
20260510012803 55 262 1.0 2.0 0.00 0.35 0.00 96 1011.6
20260510012307 55 271 0.0 1.0 0.00 0.35 0.00 95 1011.5
20260510011804 55 271 0.0 1.0 0.00 0.35 0.00 95 1011.6
20260510010803 55 272 0.0 0.0 0.00 0.35 0.00 96 1011.6
20260510010303 55 272 0.0 1.0 0.00 0.35 0.00 96 1011.6
20260510005803 55 271 0.0 1.0 0.00 0.35 0.00 96 1011.7
20260510005306 55 271 0.0 1.0 0.00 0.35 0.00 95 1011.7
20260510004303 54 323 0.0 1.0 0.00 0.35 0.00 95 1011.8
20260510003803 54 325 0.0 0.0 0.00 0.35 0.00 95 1011.8
20260510003304 54 325 0.0 0.0 0.00 0.35 0.00 95 1011.8
20260510002803 55 325 0.0 0.0 0.00 0.35 0.00 95 1011.9
20260510002306 55 325 0.0 0.0 0.00 0.35 0.00 95 1011.9
20260510001803 55 325 0.0 0.0 0.00 0.35 0.00 95 1012.0
20260510001303 55 325 0.0 0.0 0.00 0.35 0.00 95 1012.0
20260510000802 55 325 0.0 1.0 0.00 0.35 0.00 95 1012.0
20260510000304 55 325 0.0 1.0 0.00 0.35 0.00 95 1012.1
20260509235803 55 325 0.0 0.0 0.00 0.35 0.00 95 1012.2
20260509235306 55 325 0.0 0.0 0.00 0.35 0.00 95 1012.4
20260509234303 55 325 0.0 0.0 0.00 0.35 0.00 95 1012.6
20260509233803 55 325 0.0 0.0 0.00 0.35 0.00 95 1012.6
20260509233303 55 325 0.0 1.0 0.00 0.35 0.00 94 1012.6
20260509232804 55 325 0.0 1.0 0.00 0.35 0.00 94 1012.5
20260509232306 56 325 1.0 2.0 0.00 0.35 0.00 95 1012.5
20260509231803 56 328 0.0 0.0 0.00 0.35 0.00 94 1012.5
20260509231303 56 328 0.0 0.0 0.00 0.35 0.00 94 1012.5
20260509230303 56 328 0.0 0.0 0.00 0.35 0.00 94 1012.5
20260509225803 56 328 0.0 0.0 0.00 0.35 0.00 94 1012.6
20260509225305 56 328 0.0 0.0 0.00 0.35 0.00 94 1012.6
20260509224803 56 328 0.0 0.0 0.00 0.35 0.00 94 1012.6
20260509224303 56 328 0.0 0.0 0.00 0.35 0.00 94 1012.6
20260509223803 56 328 0.0 0.0 0.00 0.35 0.00 94 1012.5
20260509223303 57 328 0.0 0.0 0.00 0.35 0.00 94 1012.5
20260509222803 57 328 0.0 0.0 0.00 0.35 0.00 94 1012.5
20260509222306 57 328 0.0 0.0 0.00 0.35 0.00 94 1012.6
20260509221803 57 328 0.0 0.0 0.00 0.35 0.00 94 1012.5
20260509221303 57 328 0.0 0.0 0.00 0.35 0.00 94 1012.5
20260509220811 58 328 0.0 0.0 0.00 0.35 0.00 94 1012.4
20260509215803 58 328 0.0 0.0 0.00 0.35 0.35 94 1012.5
20260509215305 58 328 0.0 0.0 0.00 0.35 0.35 94 1012.4
20260509214803 58 328 0.0 0.0 0.00 0.35 0.35 94 1012.4
20260509214303 58 328 0.0 0.0 0.00 0.35 0.35 94 1012.5
20260509213804 58 328 0.0 0.0 0.00 0.35 0.35 94 1012.6
20260509213302 58 328 0.0 1.0 0.00 0.35 0.35 93 1012.5
20260509212803 58 328 0.0 0.0 0.00 0.35 0.35 93 1012.5